Location: ??????
(42.0089°N, 44.3281°E)
Time: 00:11:51
(UTC+00:00)

Cosmos 2251 Rocket - Pass Details

Date: 29 May 2022
Orbit: 764 x 791 km, 74.0° (Epoch: 03 July)

Event Time Altitude Azimuth Distance (km) Brightness Sun altitude
Rises 00:19:00 0° 328° (NNW) 3,250 6.9 -11.6°
Reaches altitude 10° 00:21:42 10° 316° (NW) 2,323 6.0 -11.2°
Maximum altitude 00:25:59 26° 261° (W) 1,497 4.6 -10.6°
Enters shadow 00:30:06 11° 208° (SSW) 2,263 5.4 -10.0°
